Location: New Beaver
(40.8765°N, 80.3706°W)
Time: 05:25:22
(UTC+00:00)

Daily predictions for brighter satellites

Satellite Brightness Start Highest point End
(mag) Time Altitude Azimuth Time Altitude Azimuth Time Altitude Azimuth
Aureole 1 Rocket 4.2 00:04:38 10° SW 00:07:06 26° WNW 00:07:06 26° WNW
Cosmos 407 Rocket 3.4 00:02:10 10° SSW 00:07:20 87° WNW 00:08:41 52° NNE
Cosmos 1140 Rocket 3.4 00:04:04 10° S 00:08:41 63° SE 00:08:41 63° SE
Cosmos 2026 Rocket 4.3 00:05:12 10° SSW 00:11:12 63° W 00:17:14 10° N
Cosmos 1782 Rocket 4.2 00:13:46 10° NNW 00:18:00 52° W 00:22:12 10° S
Cosmos 921 Rocket 4.4 00:15:13 10° NNW 00:17:22 29° NNW 00:17:22 29° NNW
Cosmos 1023 Rocket 4.4 00:15:30 10° SSW 00:20:01 71° S 00:20:01 71° S
NOAA 11 4.3 00:18:26 10° S 00:23:52 75° WSW 00:29:22 10° NNW
Cosmos 1417 Rocket 4.3 00:22:17 10° N 00:28:26 86° W 00:34:35 10° S
Cosmos 1655 Rocket 3.9 00:28:53 10° S 00:35:13 86° W 00:36:03 69° N
CZ-3B R/B 4.4 00:32:28 10° S 00:36:05 17° SSE 00:36:05 17° SSE
SL-16 R/B 3.1 00:38:13 10° SW 00:43:37 44° WNW 00:44:45 39° NNW
Cosmos 2369 Rocket 4.4 00:41:09 10° NNW 00:41:43 13° N 00:41:43 13° N
CZ-4C R/B 4.4 08:30:40 30° NE 08:30:40 30° NE 08:36:31 10° E
FALCON 9 R/B 3.9 08:57:38 40° SE 08:57:38 40° SE 09:10:16 10° E
USA 234 3.8 09:09:57 10° NE 09:14:40 51° NE 09:14:40 51° NE
SL-16 R/B 3.1 09:40:15 40° SSE 09:40:15 40° SSE 09:43:47 10° SSE
Cosmos 1241 Rocket 4.3 09:59:20 73° SSW 09:59:20 73° SSW 10:05:10 10° SSE
Meteor 1-27 Rocket 3.7 10:01:36 74° NNW 10:02:12 87° W 10:08:05 10° S
BREEZE-M DEB 4.0 10:04:09 59° WNW 10:05:26 86° NNE 10:09:31 10° ESE
Cosmos 1484 Rocket 3.6 10:05:44 10° NNE 10:09:35 49° E 10:13:20 10° S
Cosmos 2084 Rocket 4.1 10:09:40 51° NE 10:09:43 51° NE 10:14:00 10° SE
Cosmos 724 4.2 10:13:04 67° WNW 10:13:19 67° NW 10:19:16 10° NNE
PSLV R/B 4.4 10:12:36 10° NNE 10:16:41 59° E 10:20:44 10° S
CZ-4C R/B 2.9 10:15:53 42° NW 10:18:53 77° WSW 10:27:12 10° SSE
COSMO-SKYMED 1 3.2 10:16:20 10° SSE 10:20:33 54° ENE 10:22:52 25° N
Cosmos 614 Rocket 3.9 10:21:47 60° SW 10:21:47 60° SW 10:26:25 10° S
Cosmos 2263 Rocket 2.7 10:17:42 10° S 10:23:09 58° ESE 10:28:38 10° NNE
Cosmos 1452 Rocket 4.3 10:22:07 10° S 10:27:12 52° ESE 10:32:20 10° NNE
BREEZE-M DEB (TANK) 4.0 10:25:42 33° W 10:30:02 63° NNW 10:33:58 10° NE
Okean O Rocket 3.1 10:28:11 10° NNE 10:32:17 38° E 10:36:23 10° SSE
Cosmos 407 Rocket 3.7 10:34:45 49° W 10:35:10 50° WSW 10:40:19 10° S
Cosmos 1703 Rocket 3.7 10:32:18 19° N 10:35:26 73° E 10:39:50 10° SSE
Cosmos 1140 Rocket 3.3 10:33:50 41° NNW 10:35:40 73° WSW 10:40:51 10° S
Cosmos 2227 4.1 10:31:28 10° SSW 10:37:13 80° WNW 10:43:01 10° NNE
Cosmos 2242 Rocket 3.6 10:37:47 56° WNW 10:38:13 59° W 10:42:37 10° S
ALOS 2.5 10:37:53 10° NNE 10:42:34 72° ESE 10:47:13 10° S
Nadezhda 4 Rocket 4.0 10:39:14 14° NNW 10:44:22 53° W 10:50:18 10° SSW
SKYMED 3 4.4 10:40:21 10° S 10:44:41 80° WSW 10:47:17 24° NNW
STARLINK 1053 4.5 10:45:39 28° N 10:46:19 30° NNE 10:49:27 10° E
Lacrosse 5 3.8 10:49:21 14° SW 10:49:21 14° SW 10:50:45 10° SSW
PSLV R/B 3.8 10:49:33 38° E 10:49:33 38° E 10:51:13 10° E
FALCON 9 DEB 4.0 10:49:19 30° ENE 10:49:19 30° ENE 10:51:00 10° ESE
STARLINK 1061 4.4 10:48:15 28° N 10:49:02 32° NNE 10:52:11 10° E
SJ-12 3.8 10:45:27 10° N 10:49:35 76° WNW 10:53:40 10° SSW
Cosmos 1869 Rocket 3.6 10:45:56 10° S 10:50:14 77° E 10:54:35 10° N
FENGYUN 3A 3.7 10:45:36 10° NNE 10:51:01 82° ESE 10:56:24 10° SSW
STARLINK 1067 4.4 10:51:08 28° N 10:52:03 33° NNE 10:55:14 10° E
CZ-4B R/B 3.7 10:47:53 10° NNE 10:53:28 64° ESE 10:59:04 10° S
STARLINK 1058 4.4 10:53:47 28° N 10:54:49 34° NNE 10:58:02 10° E
GEOS 3 Rocket 3.7 10:50:10 10° SSE 10:55:06 52° WSW 10:57:27 29° WNW
STARLINK 1044 3.8 10:54:59 32° NNE 10:55:22 34° NNE 10:58:02 10° E
STARLINK 1043 4.3 10:56:48 27° NNW 10:57:58 36° NNE 11:01:13 10° E
USA 234 3.9 10:53:17 10° NE 10:59:06 36° NNW 11:02:02 24° WNW
STARLINK 1065 4.2 10:59:35 27° NNW 11:00:53 38° NNE 11:04:10 10° ESE
Meteor 1-25 Rocket 4.1 10:56:30 10° SSW 11:02:02 64° WNW 11:07:40 10° N
Meteor 1-14 Rocket 4.3 10:57:05 10° S 11:02:59 89° E 11:09:01 10° N
STARLINK 1063 4.1 11:02:34 26° NNW 11:04:00 40° NNE 11:07:19 10° ESE
Cosmos 2026 Rocket 3.9 11:00:22 10° N 11:06:33 80° W 11:12:48 10° S
STARLINK 1064 4.0 11:05:20 25° NNW 11:06:53 42° NNE 11:10:13 10° ESE
PAYLOAD B 4.1 11:02:21 10° N 11:07:51 73° WNW 11:13:21 10° SSW
Cosmos 1943 3.1 11:02:51 13° NNW 11:07:59 83° WSW 11:13:36 10° SSE
SKYMED 2 3.9 11:04:35 10° S 11:08:42 42° W 11:11:32 18° NW
STARLINK 1041 3.9 11:08:12 24° NNW 11:09:53 44° NNE 11:13:14 10° ESE
STARLINK 1038 3.8 11:11:06 23° NNW 11:12:54 47° NNE 11:16:17 10° ESE
METEOR-M 4.1 11:09:14 10° N 11:14:30 60° WNW 11:19:45 10° SSW
Cosmos 2279 Rocket 4.0 11:08:20 10° S 11:14:31 84° E 11:20:46 10° N
STARLINK 1046 3.8 11:13:59 22° NNW 11:15:54 50° NE 11:19:19 10° ESE
STARLINK 1039 3.7 11:16:52 21° NW 11:18:56 53° NE 11:22:21 10° ESE
STARLINK 1045 3.6 11:18:03 21° NW 11:20:10 54° NE 11:23:36 10° ESE
Okean 1 3.3 11:17:10 10° NNW 11:21:04 56° W 11:24:57 10° S
SL-16 R/B 4.0 11:22:13 12° WSW 11:22:13 12° WSW 11:23:32 10° WSW
Starlink Launch 2 leader 2.1 11:20:43 36° NW 11:21:33 83° SW 11:23:59 10° SE
Cosmos 1634 Rocket 4.1 11:15:39 10° SSW 11:21:40 52° W 11:27:42 10° N
Cosmos 1340 2.6 11:20:11 10° SSW 11:23:53 62° W 11:27:38 10° N
SL-24 R/B 4.2 11:19:38 10° SSE 11:24:13 84° E 11:28:28 10° N
Starlink Launch 2 trailer 2.1 11:24:15 31° WNW 11:25:13 73° SW 11:27:39 10° SE
Timation 1 Rocket 4.4 11:19:53 10° SW 11:25:42 56° WNW 11:31:36 10° NNE
Meteor 1-19 Rocket 4.1 11:20:15 10° NNW 11:25:46 81° W 11:31:24 10° S
Cosmos 1500 4.4 11:22:08 10° SSE 11:25:48 45° E 11:29:29 10° NNE
OE (NEXTSAT) 4.3 11:25:17 21° WNW 11:27:29 84° NNE 11:31:01 10° ESE
Cosmos 1515 4.0 11:24:32 10° N 11:28:21 69° E 11:32:08 10° SSE
Cosmos 1603 4.2 11:23:43 13° NW 11:28:32 42° WSW 11:33:50 10° S
Okean 1-7 3.7 11:24:47 10° NNW 11:28:45 33° W 11:32:41 10° SSW
Cosmos 1110 Rocket 4.4 11:24:55 10° S 11:30:03 66° ESE 11:35:12 10° NNE
Cosmos 1461 4.0 11:29:28 17° WNW 11:31:46 28° WSW 11:35:31 10° S
Cosmos 1602 4.2 11:28:39 10° SW 11:32:11 35° WNW 11:35:44 10° N
Cosmos 1655 Rocket 4.1 11:26:51 10° N 11:33:06 80° E 11:39:19 10° S
Meteor 2-4 Rocket 3.8 11:29:42 10° N 11:35:14 78° E 11:40:36 10° SSE
Helios 1A Rocket 3.2 11:33:01 10° N 11:36:50 41° WNW 11:40:36 10° SW
Cosmos 1536 4.0 11:40:42 10° SSE 11:44:36 48° E 11:48:32 10° NNE
Cosmos 332 Rocket 4.2 11:40:34 10° S 11:45:27 72° ESE 11:50:21 10° NNE
FALCON 9 DEB 3.3 11:46:57 14° WNW 11:48:33 30° SW 11:50:39 10° SSE
SL-23 DEB 4.1 11:52:13 10° W 11:55:08 34° NNW 11:58:19 10° NE
COSMO-SKYMED 1 4.4 11:55:02 10° WSW 11:57:02 13° W 11:59:03 10° WNW
